Regional Weather Roundup
Issued by NWS

Home | Current Version | Previous Version | Text Only | Print | Product List | Glossary Off
Versions: 1 2 3 4 5 6 7 8 9 10 11 12 13 14 15 16 17 18 19 20 21 22 23 24 25 26 27 28 29 30 31 32 33 34 35 36 37 38 39 40 41 42 43 44 45 46 47 48 49 50

000
ASUS43 KTOP 222359
RWRKS

WEATHER ROUNDUP FOR KANSAS
NATIONAL WEATHER SERVICE GOODLAND KS
600 PM CST SAT NOV 22 2014

NOTE:  "FAIR" INDICATES FEW OR NO CLOUDS BELOW 12,000 FEET WITH NO
SIGNIFICANT WEATHER AND/OR OBSTRUCTIONS TO VISIBILITY.

KSZ001>006-013>018-027>032-041>047-230100-
NORTHWEST KANSAS

CITY           SKY/WX    TMP DP  RH WIND       PRES   REMARKS
GOODLAND       PTCLDY    53  17  24 S10       29.55F
6HR MIN TEMP:  53; 6HR MAX TEMP:  68;

HAYS           CLEAR     54  41  62 S12       29.60S
HILL CITY      CLEAR     56  29  35 S9        29.56F
6HR MIN TEMP:  56; 6HR MAX TEMP:  67;

RUSSELL        PTCLDY    54  52  93 S21G30    29.60F
6HR MIN TEMP:  53; 6HR MAX TEMP:  63;

$$

KSZ061>065-074>080-084>089-230100-
SOUTHWEST KANSAS

CITY           SKY/WX    TMP DP  RH WIND       PRES   REMARKS
DODGE CITY     CLEAR     58  48  69 S21G28    29.61F
6HR MIN TEMP:  56; 6HR MAX TEMP:  64;

ELKHART          N/A    N/A N/A N/A MISG        N/A
GARDEN CITY    CLEAR     50  28  42 SE12      29.56F
6HR MIN TEMP:  50; 6HR MAX TEMP:  67;

GREAT BEND     CLOUDY    55  52  88 S26G32    29.63F
LIBERAL        CLEAR     55  18  22 S12       29.62S
$$

KSZ066>073-081>083-090>101-230100-
SOUTHEAST KANSAS

CITY           SKY/WX    TMP DP  RH WIND       PRES   REMARKS
CHANUTE        CLOUDY    54  52  93 S10       29.80S
6HR MIN TEMP:  54; 6HR MAX TEMP:  59;

COFFEYVILLE    CLOUDY    56  52  86 S14       29.82R
6HR MIN TEMP:  55; 6HR MAX TEMP:  58;

HUTCHINSON     CLOUDY    58  53  84 S18       29.69F
6HR MIN TEMP:  54; 6HR MAX TEMP:  59;

MEDICINE LODGE   N/A     57  55  93 S9        29.70S
NEWTON         CLOUDY    55  48  76 S17       29.74R
PARSONS        CLOUDY    56  53  90 S7        29.83R
6HR MIN TEMP:  56; 6HR MAX TEMP:  59;

WICHITA INTL   CLOUDY    58  53  84 S17       29.72S
6HR MIN TEMP:  53; 6HR MAX TEMP:  62;

WICHITA JABRA  CLOUDY    57  52  83 S18       29.73S
6HR MIN TEMP:  56; 6HR MAX TEMP:  62;

WINFIELD       CLOUDY    55  52  89 S14       29.77R
6HR MIN TEMP:  55; 6HR MAX TEMP:  63;

$$

KSZ007>012-019>026-033>040-048>060-102>105-230100-
NORTHEAST KANSAS

CITY           SKY/WX    TMP DP  RH WIND       PRES   REMARKS
CONCORDIA      CLOUDY    57  54  89 S21G26    29.60F
6HR MIN TEMP:  54; 6HR MAX TEMP:  63;

EMPORIA        MOCLDY    54  52  93 S17       29.73F
6HR MIN TEMP:  54; 6HR MAX TEMP:  61;

LAWRENCE       PTCLDY    55  50  83 S12       29.76F
6HR MIN TEMP:  54; 6HR MAX TEMP:  60;

MANHATTAN      CLOUDY    60  53  77 S9        29.68F
6HR MIN TEMP:  53; 6HR MAX TEMP:  62;

OLATHE IND     MOCLDY    54  51  90 S14       29.77F
6HR MIN TEMP:  53; 6HR MAX TEMP:  59;

OLATHE EXE     MOCLDY    53  51  93 S13       29.77F
6HR MIN TEMP:  53; 6HR MAX TEMP:  59;

SALINA         CLOUDY    60  54  80 S16       29.66F
6HR MIN TEMP:  57; 6HR MAX TEMP:  60;

TOPEKA BILLARD CLOUDY    57  53  86 S9        29.73F
6HR MIN TEMP:  57; 6HR MAX TEMP:  60;

TOPEKA FORBES  CLOUDY    57  52  83 S15       29.73F
6HR MIN TEMP:  57; 6HR MAX TEMP:  60;

$$



USA.gov is the U.S. government's official web portal to all federal, state and local government web resources and services.